Погода в Андыхе

Россия / Республика Дагестан     42°30′53″N   46°35′36″E
темп.,
°C
ветер,
м/с
пор.,
м/с
влажн.,
%
обл.,
%
осадки,
мм/ч
давл.,
гПа
погр.,
м
29 ноября, пн
пн2900:00+2юз3379100 0.0 101542
03:00+2юз32809 0.0 101634
06:00+1юз32774 0.0 101726
09:00+5юз22670 0.0 1016116
12:00+8зюз11537 0.0 1015665
15:00+8з115595 0.0 1015428
18:00+3юз33720 0.0 101838
21:00+4юз33534 0.0 101726
30 ноября, вт
вт3000:00+5юз3344100 0.0 101623
03:00+4ююз544679 0.0 101552
06:00+5юз5559100 0.0 101255
09:00+8ююз5554100 0.0 101198
12:00+13ююз4114064 0.0 10061091
15:00+12юз394317 0.0 1005530
18:00+6ююз45600 0.0 100763
21:00+5ююз34630 0.0 100445
1 декабря, ср
ср100:00+6ююз410582 0.0 999381
03:00+3ююз45700 0.0 99968
06:00+2юз337313 0.0 99836
09:00+5ююз35684 0.0 999363
12:00+6юз245831 0.1 999775
15:00+3с128398 1.4 1000563
18:00−1ссв2299100 6.9 1006147
21:00−3св2298100 11.2 1010224
2 декабря, чт
чт200:00−5в239799 2.1 1012230
03:00−8вюв229890 2.4 101529
06:00−10юз229238 0.1 101811
09:00−6з22775 0.1 101966
12:00−3ссз22769 0.0 1018352
15:00−4в119243 0.0 102178
18:00−9юз32855 0.0 102712
21:00−9юз32690 0.0 102814
3 декабря, пт
пт300:00−8юз33670 0.0 102720
03:00−7ююз43710 0.0 102725
06:00−7юз43685 0.0 102725
09:00−2юз33675 0.0 102443
12:00+2ююз228053 0.0 101938
15:00+1ююз326891 0.0 101922
18:00−3ююз4359100 0.0 102324
21:00−3юз435798 0.0 102227